Find WHDW 06-08

NORAD ID: 65050 Int'l Des: 2025-162 Owner: ZXW Country: CN Constellation: xingwang operational
LEOCIRCULAR

Live Position

Loading 3D Globe...

About WHDW 06-08

Description loading...

Upcoming Passes

Passes for default location (London). Set your location on the main map for personalized predictions.

Altitude History

Loading altitude history...

Two-Line Element Set

1 65050U 25162H 26107.21225270 -.00000096 00000-0 61129-4 0 9998
2 65050 50.0008 124.2037 0000909 243.4302 116.6477 13.29336495 35258
Epoch: Apr 17, 2026 • Age: 9 hours

Current Status

Altitude 1157.4 km
Velocity 7.27 km/s
Sub-Earth Point -28.53°S, 41.34°E
Launch Date Jul 30, 2025
Age 0.7 years
Type other

Technical Details

Classification Payload
Mass 800.00 kg
Dry Mass 800.00 kg
Total Mass 800.00 kg
Length 3.00 m
Diameter 1.00 m
Span 10.00 m
Shape Box + 2 Pan
Manufacturer SECM
Bus Type Xingwang S
Phase Status In Orbit
Owner/State ZXW/CN

Most Searched